Home   Weather   Landeck   Past weeks

Flag for Austria Past Weather in Landeck, Tyrol, Austria — Yesterday and Last 2 Weeks

Now
33 °F

Chilly.


Feels Like: 33 °F
Forecast: 36 / 51 °F
Wind: 1 mph from South

Location: Landeck

Current Time: Apr 30, 2017 at 5:08:23 am

Latest Report: Apr 30, 2017 at 4:00 am


Visibility: N/A

Pressure: 30.12 "Hg (27.32 "Hg at 784m altitude)

Humidity: 87%

Dew Point: 29 °F

Location of LandeckLocation

Past Weather in Landeck — Graph

°F

Landeck Temperature Yesterday

Maximum temperature yesterday: 54 °F (at 6:00 pm)
Minimum temperature yesterday: 32 °F (at 7:00 am)
Average temperature yesterday: 42 °F

High & Low Weather Summary for the Past Weeks

 TemperatureHumidityPressure
High69 °F (Apr 24, 4:00 pm)94% (Apr 18, 7:00 am)30.65 "Hg (Apr 18, 7:00 am)
Low25 °F (Apr 21, 7:00 am)21% (Apr 21, 3:00 pm)29.57 "Hg (Apr 25, 6:00 pm)
Average43 °F64%30.08 "Hg
* Reported Apr 15 3:00 am — Apr 30 3:00 am, Landeck, Weather by CustomWeather, © 2017

Note: Actual official high and low records may vary slightly from our data, if they occured in-between our weather recording intervals... More about our weather records

Advertising

Landeck Weather History for the Previous 24 Hours

Scroll right to see more
 ConditionsComfort  
Time TempWeatherWind HumidityBarometerVisibility
3:00 am
Sun, Apr 30
34 °FChilly.1 mph85%30.12 "HgN/A
2:00 am35 °FChilly.1 mph83%30.12 "HgN/A
1:00 am35 °FChilly.1 mph84%30.12 "HgN/A
12:00 am37 °FChilly.1 mph81%30.11 "HgN/A
11:00 pm
Sat, Apr 29
38 °FChilly.1 mph81%30.10 "HgN/A
10:00 pm39 °FChilly.No wind79%30.09 "HgN/A
9:00 pm42 °FQuite cool.1 mph72%30.04 "HgN/A
8:00 pm46 °FCool.1 mph63%30.01 "HgN/A
7:00 pm48 °FCool.1 mph57%29.97 "HgN/A
6:00 pm54 °FCool.1 mph35%29.95 "HgN/A
5:00 pm53 °FCool.1 mph37%29.95 "HgN/A
4:00 pm53 °FCool.1 mph37%29.97 "HgN/A
3:00 pm52 °FCool.1 mph38%29.99 "HgN/A
2:00 pm51 °FCool.2 mph38%30.02 "HgN/A
1:00 pm49 °FCool.1 mph44%30.05 "HgN/A
12:00 pm46 °FCool.2 mph47%30.09 "HgN/A
11:00 am44 °FQuite cool.1 mph50%30.12 "HgN/A
10:00 am40 °FChilly.1 mph58%30.16 "HgN/A
9:00 am37 °FChilly.1 mph65%30.19 "HgN/A
8:00 am33 °FChilly.2 mph72%30.20 "HgN/A
7:00 am32 °FChilly.2 mph83%30.21 "HgN/A
6:00 am33 °FChilly.1 mph89%30.20 "HgN/A
5:00 am35 °FChilly.1 mph90%30.17 "HgN/A
Weather by CustomWeather, © 2017

See weather overviewHow to use our weather pages